GW0353 Weather Reports


time (UTC)temp
F
wind
direction
speed
knots
gust
knots
rain 1hr
in
rain 24hr
in
rain mn
in
humidity
%
barometer
mb
20260504231057 52 282 1.7 7.0 0.00 0.00 0.00 49 1012.9
20260504230558 53 259 0.9 6.1 0.00 0.00 0.00 48 1013.0
20260504230059 52 255 1.7 6.1 0.00 0.00 0.00 49 1013.3
20260504225558 52 297 1.7 7.0 0.00 0.00 0.00 48 1013.4
20260504225057 52 110 1.7 7.8 0.00 0.00 0.00 50 1013.5
20260504224602 52 143 2.6 11.3 0.00 0.00 0.00 51 1013.4
20260504224057 52 110 3.5 11.3 0.00 0.00 0.00 50 1013.5
20260504223557 52 205 1.7 9.6 0.00 0.00 0.00 50 1013.4
20260504223058 52 352 2.6 8.7 0.00 0.00 0.00 50 1013.5
20260504222558 53 181 2.6 9.6 0.00 0.00 0.00 48 1013.6
20260504222101 54 254 2.6 9.6 0.00 0.00 0.00 47 1013.5
20260504221602 55 46 2.6 8.7 0.00 0.00 0.00 45 1013.7
20260504221057 54 257 1.7 7.0 0.00 0.00 0.00 42 1013.6
20260504220558 54 294 0.9 7.0 0.00 0.00 0.00 42 1013.7
20260504220107 53 277 2.6 6.1 0.00 0.00 0.00 44 1013.7
20260504215559 53 174 1.7 6.1 0.00 0.00 0.00 44 1013.7
20260504215057 52 308 1.7 6.1 0.00 0.00 0.00 45 1013.9
20260504214559 52 72 0.9 3.5 0.00 0.00 0.00 46 1013.7
20260504214057 52 0 0.9 3.5 0.00 0.00 0.00 47 1013.8
20260504213557 52 309 0.9 3.5 0.00 0.00 0.00 45 1013.9
20260504213110 51 0 0.9 4.3 0.00 0.00 0.00 48 1013.8
20260504212558 51 338 0.9 4.3 0.00 0.00 0.00 50 1013.9
20260504212057 50 42 0.9 5.2 0.00 0.00 0.00 50 1013.8
20260504211558 50 323 2.6 6.1 0.00 0.00 0.00 53 1013.9
20260504211057 50 91 1.7 7.8 0.00 0.00 0.00 56 1013.9
20260504210600 50 85 1.7 7.8 0.00 0.00 0.00 54 1013.9
20260504210105 50 19 3.5 7.8 0.00 0.00 0.00 55 1013.7
20260504205559 50 17 2.6 6.1 0.00 0.00 0.00 54 1013.7
20260504205059 51 333 0.9 6.1 0.00 0.00 0.00 47 1013.5
20260504204603 50 50 0.9 6.1 0.00 0.00 0.00 52 1013.5
20260504204059 50 271 0.9 8.7 0.00 0.00 0.00 53 1013.7
20260504203557 50 173 2.6 9.6 0.00 0.00 0.00 52 1013.7
20260504203059 50 67 1.7 9.6 0.00 0.00 0.00 50 1013.8
20260504202557 50 235 2.6 8.7 0.00 0.00 0.00 51 1013.5
20260504202057 49 219 0.9 9.6 0.00 0.00 0.00 53 1013.5
20260504201558 49 198 1.7 9.6 0.00 0.00 0.00 52 1013.7
20260504201058 48 255 1.7 5.2 0.00 0.00 0.00 53 1013.9
20260504200558 48 250 1.7 5.2 0.00 0.00 0.00 55 1014.1
20260504200057 48 160 0.9 4.3 0.00 0.00 0.00 55 1014.3
20260504195557 47 252 0.9 6.1 0.00 0.00 0.00 55 1014.2
20260504195056 47 229 1.7 7.0 0.00 0.00 0.00 55 1014.6
20260504194559 48 238 0.9 7.0 0.00 0.00 0.00 55 1014.5
20260504194058 49 112 0.9 4.3 0.00 0.00 0.00 50 1014.4
20260504193558 49 200 0.0 4.3 0.00 0.00 0.00 48 1014.3
20260504193113 49 253 0.0 4.3 0.00 0.00 0.00 48 1014.4
20260504192557 49 59 1.7 4.3 0.00 0.00 0.00 49 1014.5
20260504192059 50 293 0.9 5.2 0.00 0.00 0.00 47 1014.4
20260504191555 50 251 0.9 5.2 0.00 0.00 0.00 48 1014.2
20260504191057 50 336 1.7 5.2 0.00 0.00 0.00 46 1014.2
20260504190601 51 315 0.9 5.2 0.00 0.00 0.00 44 1014.1
20260504190107 51 278 1.7 5.2 0.00 0.00 0.00 46 1014.1
20260504185557 52 4 0.9 5.2 0.00 0.00 0.00 44 1014.1
20260504185057 52 330 0.9 8.7 0.00 0.00 0.00 46 1014.1
20260504184555 51 280 0.9 9.6 0.00 0.00 0.00 46 1014.0
20260504184101 51 288 2.6 9.6 0.00 0.00 0.00 48 1014.0
20260504183558 51 307 1.7 6.1 0.00 0.00 0.00 48 1013.9
20260504183102 51 6 2.6 6.1 0.00 0.00 0.00 50 1014.0
20260504182557 51 266 0.0 4.3 0.00 0.00 0.00 53 1014.0
20260504182057 50 0 0.9 7.0 0.00 0.00 0.00 51 1014.0
20260504181558 51 6 1.7 7.0 0.00 0.00 0.00 51 1014.0
20260504181057 51 23 3.5 7.0 0.00 0.00 0.00 52 1013.9
20260504180602 52 340 1.7 7.0 0.00 0.00 0.00 52 1013.7
20260504180140 52 334 2.6 7.8 0.00 0.00 0.00 51 1013.7
20260504175559 52 295 3.5 7.8 0.00 0.00 0.00 51 1013.6
20260504175057 53 148 2.6 7.0 0.00 0.00 0.00 50 1013.4
20260504174555 54 243 2.6 7.0 0.00 0.00 0.00 49 1013.4
20260504174059 55 335 2.6 7.8 0.00 0.00 0.00 47 1013.5
20260504173555 57 82 3.5 7.8 0.00 0.00 0.00 45 1013.5
20260504173055 58 355 2.6 7.8 0.00 0.00 0.00 45 1013.2
20260504172558 58 286 2.6 5.2 0.00 0.00 0.00 43 1013.2
20260504172057 58 11 1.7 6.1 0.00 0.00 0.00 43 1013.1
20260504171556 57 314 2.6 6.1 0.00 0.00 0.00 43 1013.0
20260504171058 57 298 1.7 6.1 0.00 0.00 0.00 44 1013.0
20260504170558 58 286 1.7 6.1 0.00 0.00 0.00 43 1013.2
20260504151059 48 0 0.0 1.7 0.00 0.00 0.00 64 1014.3
20260504150558 47 52 0.0 2.6 0.00 0.00 0.00 67 1014.3
20260504141057 42 0 0.0 0.0 0.00 0.00 0.00 75 1014.4
20260504140557 41 0 0.0 0.0 0.00 0.00 0.00 79 1014.4
20260504130559 34 181 0.9 0.9 0.00 0.00 0.00 84 1014.3
20260504120108 34 196 0.0 1.7 0.00 0.00 0.00 86 1014.4
20260504110557 35 184 0.0 2.6 0.00 0.00 0.00 81 1014.6
20260504100557 37 0 0.0 0.9 0.00 0.00 0.00 78 1014.9
20260504100116 37 0 0.0 0.9 0.00 0.00 0.00 78 1015.0
20260504081608 38 172 0.0 0.0 0.00 0.00 0.00 74 1015.3
20260504081058 39 0 0.0 0.9 0.00 0.00 0.00 74 1015.2
20260504080558 39 0 0.0 1.7 0.00 0.00 0.00 74 1015.2
20260504060107 40 195 0.0 1.7 0.00 0.00 0.00 72 1015.9
20260504050558 39 0 0.0 0.9 0.00 0.00 0.00 75 1016.3
20260504050110 40 0 0.0 1.7 0.00 0.00 0.00 74 1016.2
20260504045557 40 0 0.0 1.7 0.00 0.00 0.00 73 1016.3
20260504045057 41 0 0.0 1.7 0.00 0.00 0.00 73 1016.1
20260504044626 42 167 0.0 0.9 0.00 0.00 0.00 74 1016.2
20260504044057 42 0 0.0 1.7 0.00 0.00 0.00 74 1016.1
20260504043600 42 136 0.9 2.6 0.00 0.00 0.00 74 1016.1
20260504043102 42 101 0.9 2.6 0.00 0.00 0.00 75 1016.0
20260504042559 42 113 0.0 1.7 0.00 0.00 0.00 74 1016.0
20260504042102 42 103 0.9 1.7 0.00 0.00 0.00 73 1016.0
20260504041559 42 0 0.0 0.9 0.00 0.00 0.00 72 1015.9
20260504041058 42 0 0.0 0.9 0.00 0.00 0.00 72 1015.9
20260504040557 43 0 0.0 0.9 0.00 0.00 0.00 70 1016.1
20260504040104 43 217 0.0 0.9 0.00 0.00 0.00 70 1016.2
20260504035558 44 165 0.0 0.9 0.00 0.00 0.00 70 1016.1
20260504035058 44 0 0.0 0.9 0.00 0.00 0.00 69 1016.1
20260504034617 44 0 0.0 2.6 0.00 0.00 0.00 68 1016.1
20260504034100 44 0 0.0 2.6 0.00 0.00 0.00 66 1015.9
20260504033557 45 149 1.7 2.6 0.00 0.00 0.00 66 1015.9
20260504033104 45 0 0.0 3.5 0.00 0.00 0.00 66 1015.8
20260504032557 45 0 0.9 3.5 0.00 0.00 0.00 65 1015.8
20260504032057 45 0 0.0 1.7 0.00 0.00 0.00 64 1015.7
20260504031604 45 0 0.0 1.7 0.00 0.00 0.00 63 1015.5
20260504031101 46 0 0.0 0.9 0.00 0.00 0.00 64 1015.5
20260504030558 46 0 0.0 0.9 0.00 0.00 0.00 64 1015.4
20260504030058 46 0 0.0 1.7 0.00 0.00 0.00 64 1015.4
20260504025557 46 0 0.0 1.7 0.00 0.00 0.00 64 1015.3
20260504025057 46 15 0.0 1.7 0.00 0.00 0.00 64 1015.2
20260504024600 46 53 0.0 1.7 0.00 0.00 0.00 64 1015.2
20260504024056 46 0 0.0 4.3 0.00 0.00 0.00 64 1015.1
20260504023557 46 0 0.9 4.3 0.00 0.00 0.00 65 1014.9
20260504023058 46 48 0.0 4.3 0.00 0.00 0.00 65 1014.9
20260504022557 46 64 2.6 4.3 0.00 0.00 0.00 64 1014.7
20260504022057 47 41 0.0 1.7 0.00 0.00 0.00 62 1014.6
20260504021557 48 68 0.0 1.7 0.00 0.00 0.00 59 1014.7
20260504021055 48 0 0.0 1.7 0.00 0.00 0.00 57 1014.7
20260504020555 49 199 0.0 1.7 0.00 0.00 0.00 55 1014.7
20260504020104 49 0 0.0 0.9 0.00 0.00 0.00 54 1014.7
20260504015557 50 248 0.0 2.6 0.00 0.00 0.00 55 1014.7
20260504015058 50 302 0.0 4.3 0.00 0.00 0.00 55 1014.6
20260504014605 50 298 0.9 5.2 0.00 0.00 0.00 54 1014.6
20260504014058 51 282 1.7 5.2 0.00 0.00 0.00 52 1014.4
20260504013558 51 127 0.9 5.2 0.00 0.00 0.00 48 1014.4
20260504013106 51 250 0.9 4.3 0.00 0.00 0.00 44 1014.4
20260504012559 52 23 1.7 4.3 0.00 0.00 0.00 45 1014.3
20260504012058 52 290 1.7 8.7 0.00 0.00 0.00 45 1014.2
20260504011600 52 299 3.5 8.7 0.00 0.00 0.00 43 1014.2
20260504011100 52 42 0.9 6.1 0.00 0.00 0.00 42 1014.2
20260504010557 52 307 0.0 12.2 0.00 0.00 0.00 43 1014.2
20260504010059 51 87 2.6 15.6 0.00 0.00 0.00 43 1014.1
20260504005559 51 127 5.2 15.6 0.00 0.00 0.00 45 1014.0
20260504005100 51 167 7.0 15.6 0.00 0.00 0.00 46 1014.2
20260504004606 51 179 7.0 14.8 0.00 0.00 0.00 47 1014.5
20260504004059 51 237 5.2 14.8 0.00 0.00 0.00 46 1014.4
20260504003559 50 219 3.5 8.7 0.00 0.00 0.00 48 1014.4
20260504003058 49 242 1.7 9.6 0.00 0.00 0.00 52 1014.2
20260504002605 48 130 2.6 9.6 0.00 0.00 0.00 57 1014.4
20260504002100 48 159 1.7 14.8 0.00 0.00 0.00 58 1014.5
20260504001602 49 159 4.3 14.8 0.00 0.00 0.00 56 1014.8
20260504001058 49 168 6.1 14.8 0.00 0.00 0.00 54 1014.9
20260504000559 49 246 4.3 12.2 0.00 0.00 0.00 56 1014.8
20260503235600 50 266 5.2 19.1 0.00 0.00 0.00 51 1014.7
20260503235058 51 185 7.0 19.1 0.00 0.00 0.00 47 1015.1
20260503234558 52 188 9.6 17.4 0.00 0.00 0.00 43 1014.8
20260503234058 53 162 5.2 12.2 0.00 0.00 0.00 42 1014.8
20260503233600 53 154 2.6 10.4 0.00 0.00 0.00 41 1014.7
20260503233058 53 210 0.9 7.8 0.00 0.00 0.00 43 1014.6
20260503232558 53 256 1.7 7.8 0.00 0.00 0.00 40 1014.6
20260503232058 53 311 2.6 10.4 0.00 0.00 0.00 43 1014.5
20260503231607 54 327 5.2 10.4 0.00 0.00 0.00 43 1014.5